Regional Weather Roundup
Issued by NWS

Home | Current Version | Previous Version | Graphics & Text | Print | Product List | Glossary On
Versions: 1 2 3 4 5 6 7 8 9 10 11 12 13 14 15 16 17 18 19 20 21 22 23 24 25 26 27
000
ASUS45 KBOU 080907
RWRCO

WEATHER ROUNDUP FOR COLORADO
NATIONAL WEATHER SERVICE DENVER/BOULDER CO
200 AM MST THU DEC 08 2016

NOTE: "FAIR" INDICATES FEW OR NO CLOUDS BELOW 12000 FEET WITH NO
SIGNIFICANT WEATHER AND/OR OBSTRUCTIONS TO VISIBILITY.

COZ001>005-013-030-031-081000-
...NORTHWEST COLORADO...

CITY           SKY/WX    TMP DP  RH WIND       PRES   REMARKS
CRAIG          FAIR      -9 -15  75 CALM      30.31R
HAYDEN         FAIR      -4 -11  71 E14       30.27S WCI -24
MEEKER         FAIR      -9 -14  78 CALM      30.28R
MOUNT WERNER   NOT AVBL
STEAMBOAT SPGS FAIR      -8 -11  85 CALM      30.28R
WALDEN           N/A    -18 -26  69 CALM      30.21R
$$

COZ006>008-011-081000-
...WEST CENTRAL VALLEYS...

CITY           SKY/WX    TMP DP  RH WIND       PRES   REMARKS
GRAND JUNCTION FAIR      16   7  67 SE6       30.31S WCI   7
MONTROSE       FAIR      11   3  70 SE10      30.33S WCI  -3
EAGLE          FAIR      -5  -9  83 E7        30.36R WCI -19
RIFLE          FAIR       6   0  76 SE3       30.34R
DELTA          FAIR      14   3  61 CALM      30.34
NUCLA          FAIR      12   0  57 SE9       30.31S WCI   0
$$

COZ017>023-064>068-081000-
...SOUTHWEST COLORADO...

CITY           SKY/WX    TMP DP  RH WIND       PRES   REMARKS
DURANGO        FAIR       8  -1  66 CALM      30.26R
CORTEZ         FAIR      10   3  73 NE3       30.27R
PAGOSA SPRINGS FAIR       5  -2  73 CALM      30.24R
TELLURIDE      FAIR       8  -7  51 SE5       30.17S WCI  -1
WOLF CREEK PAS FAIR       0  -8  71 S18G26    30.11R WCI -22
$$

COZ009-010-012-014-032>034-037-058>063-081000-
...CENTRAL COLORADO...

CITY           SKY/WX    TMP DP  RH WIND       PRES   REMARKS
ASPEN          FAIR      -8 -12  83 S6        30.21R WCI -21
BUENA VISTA    CLOUDY     2  -5  72 CALM      30.23R
COPPER MTN     FAIR       0  -9  65 MISG      29.99R
BERTHOUD PASS  FAIR     -13 -24  58 MISG      29.91R
COTTONWOOD PAS FAIR       3   0  85 CALM      30.10S HAZE
GUNNISON       FAIR      -6 -12  75 N3        30.29R
KREMMLING      HAZE      -9 -15  77 CALM      30.31R VSB 1/2
LEADVILLE      FAIR     -11 -17  75 N3        30.09R
MONARCH PASS   FAIR      -4  -8  84 W26       30.12R WCI -30
SALIDA         MOCLDY     2  -4  74 W6        30.33R WCI  -9
SUNLIGHT       FAIR     N/A N/A N/A S12       30.12R
WILKERSON PASS FAIR      -4  -9  77 SW9       30.04R WCI -20
$$

COZ069>075-081000-
...SAN LUIS VALLEY/SANGRE DE CRISTO MOUNTAINS...

CITY           SKY/WX    TMP DP  RH WIND       PRES   REMARKS
ALAMOSA        FAIR      -2  -6  83 S5        30.22R WCI -12
LA VETA PASS   FAIR       5   1  85 NE18G30   30.09R WCI -15
SAGUACHE       FAIR       5  -4  66 NW16      30.22R WCI -14
$$

COZ035-036-038>040-081000-
...NORTHERN COLORADO FRONT RANGE...

CITY           SKY/WX    TMP DP  RH WIND       PRES   REMARKS
DENVER INTL AP FAIR      -7 -11  83 SE8       30.38R WCI -23
DMNS CITY PARK   N/A      4  -1  79 E9G15     30.40R WCI -10
AURORA         PTCLDY    -4  -8  83 S6        30.37R WCI -17
FRONT RANGE AP FAIR      -8 -13  77 S6        30.38R WCI -21
ERIE MUNI ARPT CLOUDY    -5  -9  83 CALM      30.42R
BOULDER MUN AP CLOUDY     9   3  78 W5        30.39R WCI   0
CENTENNIAL     FAIR       1  -3  83 S5        30.35R WCI  -9
BROOMFIELD     CLOUDY     9   3  78 CALM      30.37R
FORT COLLINS     N/A     -4  -4 100 N3        30.42R VSB 3/4
LONGMONT       CLOUDY     6   1  83 CALM      30.44R
$$

COZ041-046-047-076>085-087-088-081000-
...PIKES PEAK/PALMER DIVIDE AND SOUTHERN FOOTHILLS...

CITY           SKY/WX    TMP DP  RH WIND       PRES   REMARKS
COLO. SPRINGS  LGT SNOW   7   4  87 SE5       30.34S FOG     WCI  -2
A. F. ACADEMY  FLURRIES   6   2  83 SE6       30.30R WCI  -4
SCHRIEVER AFB  NOT AVBL
ELLICOTT       LGT SNOW N/A N/A N/A CALM        N/A
FALCON         LGT SNOW   6   4  90 SW6       30.29S WCI  -4
FORT CARSON    FLURRIES   5   0  78 SE5       30.34S WCI  -4
LIMON          FAIR     -14 -16  91 W3        30.40R
MONUMENT HILL  FAIR      -6  -9  84 S8        30.27R WCI -21
TRINIDAD       CLOUDY    12   9  87 E5        30.37R FOG     WCI   4
$$

COZ042>045-048>051-090-091-081000-
...NORTHEAST COLORADO...

CITY           SKY/WX    TMP DP  RH WIND       PRES   REMARKS
GREELEY ARPT   FAIR     -12 -17  78 CALM      30.47R
AKRON          FAIR      -5 -10  79 W8        30.45R WCI -20
BURLINGTON     FAIR      -2 -10  69 W14       30.49R WCI -21
WRAY           NOT AVBL
STERLING       FAIR      -9 -13  84 S6        30.50R WCI -23
HOLYOKE        FAIR       5  -4  66 NW8G17    30.51S WCI  -8
FORT MORGAN    FAIR      -6 -11  79 W6        30.48R WCI -19
$$

COZ086-089-092>099-081000-
...SOUTHEAST COLORADO...

CITY           SKY/WX    TMP DP  RH WIND       PRES   REMARKS
PUEBLO         CLOUDY    15   7  70 SE6       30.44R WCI   6
LA JUNTA       FAIR      11   3  70 N5        30.48F WCI   3
LAMAR          MOCLDY     5   0  79 SW3       30.51R
SPRINGFIELD      N/A     12   4  70 N8        30.45S WCI   0
$$




USA.gov is the U.S. government's official web portal to all federal, state and local government web resources and services.